Location: De Platvoet
(52.2667°N, 6.1667°E)
Time: 15:18:25
(UTC+00:00)

Cosmos 1606 Rocket - Pass Details

Date: 15 May 2026
Orbit: 595 x 625 km, 82.5° (Epoch: 10 June)

Event Time Altitude Azimuth Distance (km) Brightness Sun altitude
Exits shadow 21:17:16 16° 179° (S) 1,624 5.2 -12.9°
Maximum altitude 21:20:44 70° 97° (E) 646 3.5 -13.2°
Drops below altitude 10° 21:25:02 10° 15° (NNE) 1,955 6.8 -13.6°
Sets 21:27:15 0° 13° (NNE) 2,860 7.7 -13.7°
